{"data":{"norad_id":64572,"epoch":"2026-09-21T22:27:18.954720Z","epoch_age_seconds":58059,"freshness":"FRESH","line1":"1 64572U 25135AW  26264.93563605  .00001436  00000+0  14045-3 0  9997","line2":"2 64572  97.7824  18.1797 0002406  43.0397 317.1011 14.93891155 68323","mean_motion":14.93891155,"eccentricity":0.0002406,"inclination_deg":97.7824,"raan_deg":18.1797,"arg_perigee_deg":43.0397,"mean_anomaly_deg":317.1011,"bstar":0.00014045,"rev_number":6832,"period_min":96.392564825113,"perigee_km":584.14110345185,"apogee_km":587.49215793894,"semimajor_km":6963.9536306954,"source":"CELESTRAK","updated_at":"2026-09-22T09:00:29.851196Z"}}